Afton Municipal Airport, WY

9:54 AM MST on December 09, 2019 (GMT -0700)
Afton Municipal

Weather History for KAFO - October, 2019

Change the Weather History Date:

Saturday, October 26, 2019

  Actual Average Record
Temperature  
Mean Temperature 32 °F -  
Max Temperature 42 °F 55 °F 62 °F (2016)
Min Temperature 23 °F 22 °F 26 °F (2017)
Degree Days  
Heating Degree Days 32    
Moisture  
Dew Point 26 °F    
Average Humidity 81    
Maximum Humidity 100    
Minimum Humidity 33    
Precipitation  
Precipitation 0.00 in - - ()
Sea Level Pressure  
Sea Level Pressure 29.92 in    
Wind  
Wind Speed 3 mph ()    
Max Wind Speed 14 mph    
Max Gust Speed 20 mph    
Visibility 9.8 miles    
Events Rain , Snow    
Averages and records for this station are not official NWS values.
T = Trace of Precipitation, MM = Missing Value Source: Averaged Metar Reports

Daily Weather History Graph

Daily Weather History Graph

Search for Another Location

Airport or City:

Astronomy

Oct. 26, 2019 Rise Set
Actual Time 7:50 AM MDT 6:24 PM MDT
Civil Twilight 7:21 AM MDT 6:53 PM MDT
Nautical Twilight 6:47 AM MDT 7:26 PM MDT
Astronomical Twilight 6:15 AM MDT 7:59 PM MDT
Moon 5:45 AM MDT (10/26) 6:05 PM MDT (10/26)
Length of Visible Light 11h 32m
Length of Day
10h 34m
Waning Crescent, 3% of the Moon is Illuminated
Oct 26
Waning Crescent
Oct 27
New
Nov 4
First Quarter
Nov 12
Full
Nov 19
Last Quarter

Hourly Weather History & Observations

Time (MDT) Temp. Windchill Dew Point Humidity Pressure Visibility Wind Dir Wind Speed Gust Speed Precip Events Conditions
12:15 AM 32.0 °F - 28.4 °F 87% 30.10 in 10.0 mi Calm Calm - N/A   Clear
12:35 AM 28.4 °F - 26.6 °F 93% 30.09 in 10.0 mi Calm Calm - N/A   Clear
12:55 AM 28.4 °F - 26.6 °F 93% 30.09 in 10.0 mi Calm Calm - N/A   Clear
1:15 AM 30.2 °F - 26.6 °F 86% 30.09 in 10.0 mi Calm Calm - N/A   Clear
1:35 AM 26.6 °F - 23.0 °F 86% 30.08 in 10.0 mi Calm Calm - N/A   Clear
1:55 AM 26.6 °F 22.6 °F 26.6 °F 100% 30.06 in 10.0 mi SSE 3.5 mph - N/A   Clear
2:15 AM 26.6 °F - 23.0 °F 86% 30.05 in 10.0 mi Calm Calm - N/A   Clear
2:35 AM 26.6 °F - 24.8 °F 93% 30.05 in 10.0 mi Calm Calm - N/A   Clear
2:55 AM 26.6 °F 22.6 °F 24.8 °F 93% 30.04 in 10.0 mi NW 3.5 mph - N/A   Clear
3:15 AM 26.6 °F - 24.8 °F 93% 30.03 in 10.0 mi Calm Calm - N/A   Clear
3:35 AM 24.8 °F - 23.0 °F 93% 30.02 in 10.0 mi Calm Calm - N/A   Clear
3:55 AM 24.8 °F - 23.0 °F 93% 30.01 in 10.0 mi Calm Calm - N/A   Clear
4:15 AM 24.8 °F - 23.0 °F 93% 30.00 in 10.0 mi Calm Calm - N/A   Clear
4:35 AM 23.0 °F - 21.2 °F 93% 29.99 in 10.0 mi Calm Calm - N/A   Clear
4:55 AM 23.0 °F - 23.0 °F 100% 29.97 in 10.0 mi Calm Calm - N/A   Scattered Clouds
5:15 AM 28.4 °F 23.3 °F 26.6 °F 93% 29.96 in 10.0 mi NE 4.6 mph - N/A   Overcast
5:35 AM 28.4 °F - 26.6 °F 93% 29.94 in 10.0 mi Calm Calm - N/A   Mostly Cloudy
5:55 AM 30.2 °F - 28.4 °F 93% 29.93 in 10.0 mi Calm Calm - N/A   Overcast
6:15 AM 28.4 °F - 26.6 °F 93% 29.92 in 10.0 mi Calm Calm - N/A   Overcast
6:35 AM 30.2 °F 24.3 °F 28.4 °F 93% 29.92 in 10.0 mi NE 5.8 mph - N/A   Overcast
6:55 AM 32.0 °F 28.7 °F 28.4 °F 87% 29.90 in 10.0 mi ENE 3.5 mph - N/A   Overcast
7:15 AM 30.2 °F - 28.4 °F 93% 29.89 in 10.0 mi Calm Calm - N/A   Overcast
7:35 AM 32.0 °F 27.5 °F 28.4 °F 87% 29.90 in 10.0 mi NNE 4.6 mph - N/A   Overcast
7:55 AM 32.0 °F - 30.2 °F 93% 29.90 in 10.0 mi Calm Calm - N/A   Overcast
8:15 AM 32.0 °F 27.5 °F 28.4 °F 87% 29.90 in 10.0 mi NW 4.6 mph - N/A   Overcast
8:35 AM 30.2 °F - 28.4 °F 93% 29.90 in 10.0 mi Calm Calm - N/A   Overcast
8:55 AM 32.0 °F - 30.2 °F 93% 29.91 in 10.0 mi Calm Calm - N/A   Overcast
9:15 AM 32.0 °F - 32.0 °F 100% 29.92 in 10.0 mi Calm Calm - N/A   Overcast
9:35 AM 33.8 °F - 32.0 °F 93% 29.90 in 10.0 mi Calm Calm - N/A   Overcast
9:55 AM 35.6 °F - 32.0 °F 87% 29.92 in 10.0 mi North - - N/A   Overcast
10:15 AM 41.0 °F 37.1 °F 32.0 °F 70% 29.91 in 10.0 mi NW 5.8 mph - N/A   Overcast
10:35 AM 41.0 °F 35.8 °F 32.0 °F 70% 29.92 in 10.0 mi NW 8.1 mph - N/A   Light Drizzle
10:55 AM 42.8 °F 37.5 °F 32.0 °F 66% 29.91 in 10.0 mi WNW 9.2 mph - N/A   Overcast
11:15 AM 42.8 °F 36.2 °F 32.0 °F 66% 29.90 in 10.0 mi West 12.7 mph 17.3 mph N/A   Overcast
11:35 AM 42.8 °F 36.6 °F 32.0 °F 66% 29.90 in 10.0 mi WNW 11.5 mph 16.1 mph N/A   Light Drizzle
11:55 AM 42.8 °F 35.8 °F 32.0 °F 66% 29.90 in 10.0 mi West 13.8 mph 17.3 mph N/A   Overcast
12:15 PM 41.0 °F 34.3 °F 30.2 °F 65% 29.90 in 10.0 mi WNW 11.5 mph 19.6 mph N/A   Light Drizzle
12:35 PM 41.0 °F 37.1 °F 28.4 °F 61% 29.89 in 10.0 mi WNW 5.8 mph - N/A   Overcast
12:55 PM 39.2 °F 35.0 °F 28.4 °F 65% 29.88 in 10.0 mi NNW 5.8 mph - N/A Rain Light Rain
1:15 PM 37.4 °F 30.3 °F 30.2 °F 75% 29.87 in 10.0 mi NNW 10.4 mph - N/A Snow Light Snow
1:35 PM 35.6 °F 28.0 °F 28.4 °F 75% 29.87 in 7.0 mi NNW 10.4 mph - N/A Snow Light Snow
1:55 PM 35.6 °F 30.7 °F 28.4 °F 75% 29.87 in 10.0 mi NW 5.8 mph - N/A Snow Light Snow
2:15 PM 35.6 °F 32.8 °F 28.4 °F 75% 29.87 in 10.0 mi WNW 3.5 mph - N/A Snow Light Snow
2:35 PM 37.4 °F - 28.4 °F 70% 29.86 in 10.0 mi Calm Calm - N/A   Overcast
2:55 PM 37.4 °F - 28.4 °F 70% 29.85 in 10.0 mi Calm Calm - N/A   Overcast
3:15 PM 37.4 °F 34.9 °F 26.6 °F 65% 29.84 in 10.0 mi East 3.5 mph - N/A   Overcast
3:35 PM 37.4 °F 34.9 °F 23.0 °F 56% 29.83 in 10.0 mi SSW 3.5 mph - N/A   Overcast
3:55 PM 37.4 °F 34.9 °F 23.0 °F 56% 29.83 in 10.0 mi West 3.5 mph - N/A   Overcast
4:15 PM 41.0 °F 35.2 °F 14.0 °F 33% 29.83 in 10.0 mi West 9.2 mph - N/A   Mostly Cloudy
4:35 PM 39.2 °F 31.2 °F 17.6 °F 42% 29.83 in 10.0 mi NW 13.8 mph - N/A   Scattered Clouds
5:15 PM 37.4 °F 32.8 °F 17.6 °F 45% 29.84 in 10.0 mi WNW 5.8 mph - N/A   Clear
5:35 PM 35.6 °F 30.7 °F 19.4 °F 52% 29.83 in 10.0 mi NW 5.8 mph - N/A   Clear
5:55 PM 32.0 °F 26.4 °F 19.4 °F 60% 29.83 in 10.0 mi NNW 5.8 mph - N/A   Clear
6:15 PM 32.0 °F 24.8 °F 21.2 °F 64% 29.84 in 10.0 mi NNW 8.1 mph - N/A   Scattered Clouds
6:35 PM 30.2 °F 23.4 °F 23.0 °F 75% 29.84 in 10.0 mi North 6.9 mph - N/A   Scattered Clouds
6:55 PM 30.2 °F - 23.0 °F 75% 29.85 in 10.0 mi North - - N/A   Scattered Clouds
7:15 PM 30.2 °F 24.3 °F 23.0 °F 75% 29.84 in 10.0 mi North 5.8 mph - N/A   Clear
7:55 PM 28.4 °F 24.6 °F 24.8 °F 86% 29.86 in 10.0 mi NW 3.5 mph - N/A   Mostly Cloudy
8:15 PM 28.4 °F 21.2 °F 26.6 °F 93% 29.86 in 10.0 mi WNW 6.9 mph - N/A   Overcast
8:35 PM 28.4 °F 24.6 °F 26.6 °F 93% 29.86 in 10.0 mi WNW 3.5 mph - N/A   Overcast
8:55 PM 30.2 °F 23.4 °F 28.4 °F 93% 29.87 in 10.0 mi North 6.9 mph - N/A   Overcast
9:15 PM 28.4 °F 19.1 °F 26.6 °F 93% 29.87 in 10.0 mi NNW 10.4 mph - N/A   Overcast
9:35 PM 28.4 °F 18.5 °F 26.6 °F 93% 29.86 in 10.0 mi North 11.5 mph - N/A   Overcast
9:55 PM 28.4 °F 19.7 °F 26.6 °F 93% 29.87 in 10.0 mi NNW 9.2 mph - N/A   Overcast
10:15 PM 28.4 °F 19.1 °F 26.6 °F 93% 29.88 in 10.0 mi NNW 10.4 mph - N/A   Overcast
10:35 PM 28.4 °F 21.2 °F 26.6 °F 93% 29.89 in 10.0 mi NNW 6.9 mph - N/A   Overcast
10:55 PM 28.4 °F - 26.6 °F 93% 29.89 in 7.0 mi Calm Calm - N/A Snow Light Snow
11:15 PM 28.4 °F - 26.6 °F 93% 29.90 in 5.0 mi Calm Calm - N/A Snow Light Snow
11:35 PM 28.4 °F - 26.6 °F 93% 29.90 in 10.0 mi Calm Calm - N/A   Overcast
11:55 PM 28.4 °F - 26.6 °F 93% 29.90 in 10.0 mi Calm Calm - N/A   Overcast